Weather History for Nausori, Fiji

Change the Weather History Date:

Wednesday, January 29, 2003

  Actual Average Record
Temperature  
Mean Temperature 81 °F -  
Max Temperature 87 °F - - ()
Min Temperature 75 °F - - ()
Cooling Degree Days 16    
Growing Degree Days 31 (Base 50)    
Moisture  
Dew Point 75 °F    
Average Humidity 84    
Maximum Humidity 100    
Minimum Humidity 66    
Precipitation  
Precipitation 0.00 in - - ()
Sea Level Pressure  
Sea Level Pressure 29.75 in    
Wind  
Wind Speed 2 mph ()    
Max Wind Speed 10 mph    
Max Gust Speed -    
Visibility 14.0 miles    
Events Rain    
T = Trace of Precipitation, MM = Missing Value Source: Averaged Metar Reports

Daily Weather History Graph

Daily Weather History Graph

Search for Another Location

Airport:

Trip Planner

Search our weather history database for the weather conditions in past years. The results will help you decide how hot, cold, wet, or windy it might be!

Date:

Astronomy

Jan. 29, 2003 Rise Set
Actual Time 5:50 AM FJT 6:46 PM FJT
Civil Twilight 5:27 AM FJT 7:10 PM FJT
Nautical Twilight 4:59 AM FJT 7:37 PM FJT
Astronomical Twilight 4:31 AM FJT 8:05 PM FJT
Moon 2:19 AM FJT (1/29) 3:59 PM FJT (1/29)
Length of Visible Light 13h 42m
Length of Day
12h 56m
Waning Crescent, 13% of the Moon is Illuminated
Jan 29
Waning Crescent
Feb 1
New
Feb 9
First Quarter
Feb 17
Full
Feb 24
Last Quarter

Hourly Weather History & Observations

Time (FJT) Temp. Heat Index Dew Point Humidity Pressure Visibility Wind Dir Wind Speed Gust Speed Precip Events Conditions
12:00 AM 75.2 °F - 75.2 °F 100% 2.95 in 9.3 mi South 3.5 mph - N/A Rain Light Rain Showers
1:00 AM 75.2 °F - 75.2 °F 100% 29.77 in 18.6 mi Calm Calm - N/A   Overcast
2:00 AM 75.2 °F - 75.2 °F 100% 29.74 in 24.9 mi Calm Calm - N/A   Overcast
3:00 AM 75.2 °F - 73.4 °F 94% 29.74 in 24.9 mi Calm Calm - N/A   Mostly Cloudy
4:00 AM 75.2 °F - 75.2 °F 100% 29.74 in 24.9 mi Calm Calm - N/A   Mostly Cloudy
5:00 AM 75.2 °F - 75.2 °F 100% 29.74 in 24.9 mi Calm Calm - N/A   Overcast
6:00 AM 75.2 °F - 73.4 °F 94% 29.77 in 31.1 mi Calm Calm - N/A   Scattered Clouds
7:00 AM 75.2 °F - 73.4 °F 94% 29.77 in 31.1 mi Calm Calm - N/A   Scattered Clouds
8:00 AM 78.8 °F - 77.0 °F 94% 29.77 in 31.1 mi Calm Calm - N/A   Scattered Clouds
9:00 AM 80.6 °F 86.2 °F 75.2 °F 84% 29.77 in 31.1 mi Calm Calm - N/A   Mostly Cloudy
10:00 AM 82.4 °F 89.5 °F 75.2 °F 79% 29.77 in 31.1 mi Calm Calm - N/A   Mostly Cloudy
11:00 AM 84.2 °F 92.3 °F 75.2 °F 74% 29.77 in 31.1 mi East 9.2 mph - N/A   Mostly Cloudy
12:00 PM 86.0 °F 95.1 °F 75.2 °F 70% 29.74 in 31.1 mi SE 6.9 mph - N/A   Mostly Cloudy
1:00 PM 86.0 °F 95.1 °F 75.2 °F 70% 29.74 in 31.1 mi SSE 10.4 mph - N/A   Mostly Cloudy
2:00 PM 87.8 °F 97.6 °F 75.2 °F 66% 29.71 in 31.1 mi ESE 5.8 mph - N/A   Scattered Clouds
3:00 PM 87.8 °F 97.6 °F 75.2 °F 66% 29.71 in 31.1 mi South 5.8 mph - N/A   Scattered Clouds
4:00 PM 86.0 °F 95.1 °F 75.2 °F 70% 29.71 in 31.1 mi East 5.8 mph - N/A   Mostly Cloudy
5:00 PM 86.0 °F 95.1 °F 75.2 °F 70% 29.71 in 31.1 mi East 5.8 mph - N/A   Mostly Cloudy
6:00 PM 86.0 °F 95.1 °F 75.2 °F 70% 29.71 in 31.1 mi East 5.8 mph - N/A   Mostly Cloudy
7:00 PM 82.4 °F 89.5 °F 75.2 °F 79% 29.74 in 31.1 mi Calm Calm - N/A   Mostly Cloudy
9:00 PM 80.6 °F 86.2 °F 75.2 °F 84% 29.77 in 24.9 mi Calm Calm - N/A   Mostly Cloudy
10:00 PM 80.6 °F 86.2 °F 75.2 °F 84% 29.77 in 24.9 mi Calm Calm - N/A   Mostly Cloudy
11:00 PM 78.8 °F - 75.2 °F 89% 29.77 in 24.9 mi East 3.5 mph - N/A   Scattered Clouds